Location: *
(42.5628°N, 2.3633°E)
Time: 06:38:22
(UTC+00:00)

DMSP B5D2-2 - Pass Details

Date: 30 March 2020
Orbit: 791 x 805 km, 98.3° (Epoch: 03 June)

Event Time Altitude Azimuth Distance (km) Brightness Sun altitude
Rises 20:12:40 0° 12° (NNE) 3,299 7.5 -21.5°
Reaches altitude 10° 20:15:00 10° 11° (N) 2,366 6.7 -21.9°
Maximum altitude 20:20:13 80° 286° (WNW) 811 4.1 -22.7°
Drops below altitude 10° 20:25:26 10° 200° (SSW) 2,356 6.4 -23.5°
Sets 20:27:45 0° 199° (SSW) 3,283 7.2 -23.9°
